Terminal Aerodrome Forecast
Issued by NWS Jackson, KY

Home | Current Version | Previous Version | Text Only | Print | Product List | Glossary On
Versions: 1 2 3 4 5 6 7 8 9 10 11 12 13 14 15 16 17 18 19 20 21 22 23
000
FTUS43 KJKL 151200 AAC
TAFJKL
TAF AMD
KJKL 151241Z 1513/1612 33010G17KT 1 1/2SM -SN BR BKN005 OVC009
     FM151700 30010G20KT P6SM SCT010 OVC016
     FM152100 30010G18KT P6SM SCT018 OVC035
     FM152300 VRB04KT P6SM BKN040
     FM160400 VRB03KT P6SM SKC=

USA.gov is the U.S. government's official web portal to all federal, state and local government web resources and services.